Location: Leeds
(37.2390°N, 113.3580°W)
Time: 03:23:25
(UTC-07:00)

Daily predictions for brighter satellites

Satellite Brightness Start Highest point End
(mag) Time Altitude Azimuth Time Altitude Azimuth Time Altitude Azimuth
ATLAS 5 CENTAUR R/B 4.2 04:04:11 19° NE 04:04:11 19° NE 04:05:47 10° NE
Cosmos 1943 Rocket 3.6 04:09:50 33° ENE 04:09:50 33° ENE 04:13:29 10° NE
ATLAS CENTAUR R/B 3.6 04:15:18 66° NNE 04:15:46 67° NE 04:30:33 10° SE
CZ-4C R/B 4.0 04:18:40 21° SE 04:19:51 23° ESE 04:24:06 10° ENE
Lacrosse 5 2.5 04:49:14 50° NNE 04:49:14 50° NNE 04:53:02 10° NE
ADEOS II 3.0 04:45:04 10° N 04:48:14 37° N 04:48:14 37° N
Meteor 1-31 Rocket 4.4 04:47:45 10° NNE 04:50:24 33° ENE 04:50:24 33° ENE
Cosmos 1452 Rocket 4.3 04:51:03 28° SSE 04:53:34 50° ESE 04:58:40 10° NNE
USA 234 3.1 04:50:15 10° NE 04:56:44 70° NW 04:57:37 63° W
Cosmos 2369 Rocket 3.5 05:07:22 25° NNW 05:07:22 25° NNW 05:10:21 10° N
Cosmos 2221 Rocket 4.2 05:05:56 10° S 05:10:23 56° E 05:14:52 10° NNE
Cosmos 407 Rocket 3.4 05:08:27 17° NNW 05:12:38 88° WSW 05:17:57 10° SSE
Feng Yun 1-1 Rocket 4.4 05:08:43 10° NNE 05:14:38 82° ESE 05:20:34 10° SSW
Cosmos 1656 Rocket 3.9 05:10:17 17° S 05:14:42 69° ESE 05:20:22 10° NNE
Cosmos 676 Rocket 4.3 05:11:08 10° NNW 05:16:27 69° ENE 05:21:45 10° SSE
ATLAS 3B R/B 4.4 05:10:41 10° S 05:17:19 34° ESE 05:23:47 10° NE
CZ-4B R/B 3.8 05:14:37 10° NNE 05:18:38 89° ESE 05:19:03 71° S
Nadezhda 2 Rocket 4.3 05:18:05 10° NNW 05:24:06 66° W 05:30:10 10° S
Cosmos 1833 4.0 05:24:16 10° NNW 05:29:51 75° WSW 05:35:26 10° SSE
GEOS 3 Rocket 3.8 05:25:47 10° S 05:30:36 44° WSW 05:31:06 42° WSW
Cosmos 1140 Rocket 4.1 05:28:14 10° N 05:33:24 59° ENE 05:38:33 10° SSE
Okean 1-7 2.9 05:30:34 10° S 05:34:51 90° SW 05:39:08 10° N
Tiangong 1 1.5 05:39:12 46° N 05:39:12 46° N 05:41:43 10° ENE
Cosmos 1190 Rocket 4.3 05:37:58 32° WNW 05:39:33 40° WSW 05:44:26 10° S
Sich 1 Rocket 3.9 05:35:59 10° NNW 05:40:15 42° W 05:44:27 10° SSW
Cosmos 1908 Rocket 3.9 05:38:09 10° NNW 05:42:22 42° W 05:46:34 10° SSW
Cosmos 1417 Rocket 4.4 05:39:17 10° SSW 05:45:26 66° W 05:51:33 10° N
ATLAS 5 CENTAUR R/B 3.2 05:45:46 22° NW 05:45:57 22° NW 05:49:53 10° N
Cosmos 1745 Rocket 4.2 05:41:27 10° N 05:47:36 74° E 05:53:43 10° SSE
Cosmos 1782 Rocket 3.5 05:43:33 10° NNW 05:47:59 65° W 05:52:22 10° S
Meteor 2-10 Rocket 3.6 05:43:41 11° SSW 05:48:13 47° WNW 05:53:05 10° N
Meteor 1-28 Rocket 4.1 05:45:20 10° SSE 05:48:55 49° ENE 05:52:32 10° N
Okean-O 3.1 05:45:25 10° N 05:49:30 37° WNW 05:50:57 29° WSW
Cosmos 1943 Rocket 3.1 05:51:24 25° WNW 05:52:12 26° WNW 05:56:48 10° N
Cosmos 1782 2.9 05:51:13 10° S 05:55:09 75° E 05:59:08 10° N
Radarsat Rocket 4.2 05:48:08 10° NNE 05:55:24 86° WNW 06:01:45 10° SSW
SKYMED 2 3.5 05:52:28 10° SSE 05:56:48 86° W 06:01:10 10° NNW
Meteor 1-20 Rocket 4.3 05:51:54 10° N 05:57:39 83° E 06:03:13 10° S
Meteor 1-14 Rocket 4.4 05:58:33 10° NNW 06:04:10 51° W 06:09:37 10° SSW
Cosmos 1954 Rocket 4.2 06:01:30 10° NNW 06:06:37 50° WSW 06:11:44 10° S
IDEFIX/ARIANE 42P 4.4 06:01:51 10° NNE 06:06:37 35° E 06:11:20 10° SSE
CZ-4C R/B 2.5 06:03:56 16° WSW 06:07:51 45° NW 06:13:30 10° NNE
NOAA 6 4.3 06:05:35 10° N 06:10:29 44° WNW 06:15:20 10° SW
Ariane Rocket 3.2 06:05:47 10° NNE 06:10:53 76° ESE 06:15:57 10° S
Okean 2 Rocket 3.2 06:06:44 10° NNW 06:10:57 48° W 06:15:10 10° SSW
Cosmos 1420 Rocket 4.1 06:06:05 10° SW 06:11:05 50° WNW 06:16:08 10° N
Cosmos 1606 2.7 06:07:19 10° S 06:11:10 90° W 06:15:04 10° N
Cosmos 1674 Rocket 4.5 06:07:55 10° S 06:12:10 52° E 06:16:29 10° NNE
CSL-04 Rocket 4.1 06:07:51 10° NNE 06:13:14 69° ESE 06:18:40 10° S
Thor Agena Rocket 4.5 06:18:59 10° SSW 06:23:18 26° W 06:27:37 10° NW
Meteor 2-6 Rocket 4.0 06:19:58 10° SSW 06:25:20 74° W 06:30:45 10° N
Cosmos 2151 Rocket 3.6 06:25:41 10° NNW 06:30:10 66° W 06:34:35 10° S
Lacrosse 5 3.6 06:28:28 10° WNW 06:31:40 17° NNW 06:35:00 10° NNE
CZ-4 R/B 2.4 06:27:55 10° NNE 06:31:59 52° E 06:35:59 10° S
Delta 2 Rocket 4.2 06:27:06 10° WSW 06:32:01 65° SSE 06:37:30 10° E
Okean 1 Rocket 4.5 06:28:06 10° N 06:32:19 43° E 06:36:28 10° SSE
Cosmos 2297 Rocket 3.9 06:28:53 10° N 06:34:02 35° ENE 06:39:09 10° SE
SL-12 R/B (Aux Motor) 3.6 06:32:59 10° WNW 06:35:52 83° NNE 06:37:50 10° ESE
Cosmos 1607 3.9 06:31:22 10° SW 06:37:28 72° WNW 06:43:39 10° NNE
Cosmos 2278 4.2 06:32:06 10° S 06:37:41 68° ESE 06:43:18 10° NNE
COSMOS 2455 4.3 06:33:22 10° S 06:38:59 43° ESE 06:44:39 10° NE
USA 234 4.5 06:33:56 10° NNE 06:38:59 25° NNW 06:44:02 10° WNW
USA 238 DEB 4.1 06:32:51 10° SSW 06:39:49 74° ESE 06:46:49 10° NE
USA 238 4.1 06:32:57 10° SSW 06:39:54 73° ESE 06:46:55 10° NE
CSL-04 Debris 4.1 06:37:13 10° N 06:42:37 75° WNW 06:47:59 10° SSW
Cosmos 1110 Rocket 4.0 06:38:59 10° SSW 06:44:09 87° WNW 06:49:21 10° NNE
COSMO-SKYMED 1 3.7 06:41:31 10° SSW 06:44:59 23° W 06:48:29 10° NW
Cosmos 2219 3.7 06:41:50 10° NW 06:47:04 40° WSW 06:52:15 10° S
